FENGYUN 1C DEB, 30107

Orbit data source: Space-Track

FENGYUN 1C DEB, 30107 is space debris in SSO originally from a launch on Mon, 10 May 1999 UTC launched from the Taiyaun Space Center, China (TSC). Fengyun 1C debris stems from the Chinese weather satellite Fengyun-1C, which was intentionally destroyed by a Chinese anti-satellite missile in 2007. This event dramatically increased the amount of space debris, with thousands of trackable fragments posing hazards to satellites and human spaceflight. The Fengyun 1C debris cloud has become a focal point in discussions about space sustainability and the need for international regulations to prevent the creation of new debris.

Loading next visibility...
Identifier
30107, 1999-025RL
Orbit
SSO
Country
Flag of CNCN / PRC
Related business
Manufacturer
Unknown
Mission
Spacecraft
Bus & Motor
Unknown
Mass
Unknown
Launch date (UTC)
1999-05-10 (27 years ago)
Launch vehicle
Unknown
Launch site
Taiyaun Space Center, China (TSC)
Object type
Payload
Rocket body
Debris
Shape & HBR
Unknown shape, 0.1 m
Radar Cross Section
Medium (>0.1 m² and <1 m²)

Expand to show TLE details & history
Last TLE update: 20 hours ago

TLE from 20 hours ago
0 FENGYUN 1C DEB
1 30107U 99025RL  26255.15188103  .00000064  00000-0  52263-4 0  9995
2 30107  98.8097 313.9666 0126610 217.3015 141.9317 14.14534047 14254
Epoch: 2026-09-12T03:38Z
TLE epoch observation values (Epoch: 2026-09-12T03:38:42.520Z)
Latitude
0.00005°
Longitude
-91.87557°
Altitude
919.236 km
Speed
7.355 km/s
True Right ascension
20h 55m 51s
True Declination
0° 00' 00"
Sunlit
Object was in full shadow at epoch
Visualization orbit readout
Latitude
Unknown
Longitude
Unknown
Altitude
Unknown
Speed
Unknown
Apparent Right ascension
Unknown
Apparent Declination
Unknown
Sunlit
N/A
Visualization observer readout
Local Sidereal Time
16:03:51
Azimuth
Unknown
Elevation
Unknown
Doppler factor
Unknown
Orbital elements
Apogee altitude
932.47 km
Perigee altitude
749.665 km
Semi-major axis
7,219.205 km
Eccentricity
0.01266
Inclination
98.8097°
RAAN
313.9666°
Arg. of periapsis
217.3015°
True anomaly
142.81524°
Mean anomaly
141.9317°
Eccentric anomaly
142.37457°
Mean motion
3.53842 °/min
Orbital period
101.74 mins
BSTAR
0.000052263
Loading maneuver chart data...
Computing Atmospheric mass density...

Documentation

Showing up to 5 results
|